Погода в Кедайняе

Литва     55°17′17″N   23°58′15″E
темп.,
°C
ветер,
м/с
пор.,
м/с
влажн.,
%
обл.,
%
осадки,
мм/ч
давл.,
гПа
погр.,
м
24 июля, сб
сб2400:00+16ссз35955 0.3 1015127
03:00+12ссв33895 0.3 101650
06:00+11ссв22915 0.0 101638
09:00+16ссв23792 0.0 1017327
12:00+20с225916 0.0 1017970
15:00+23ссз225025 0.0 10161418
18:00+23с22509 0.0 10161408
21:00+18всв22680 0.0 101720
25 июля, вс
вс2500:00+15вюв11720 0.0 101711
03:00+13в11790 0.0 101811
06:00+13в11820 0.0 101810
09:00+19в22650 0.0 1019240
12:00+23вюв22550 0.0 1019973
15:00+26всв125090 0.0 10181958
18:00+23всв3565100 0.0 1018171
21:00+21вюв3369100 0.0 101859
26 июля, пн
пн2600:00+20юв357298 0.0 101990
03:00+17юв35845 0.0 101965
06:00+16юв36873 0.0 101996
09:00+22юв46665 0.0 1019329
12:00+26юв465019 0.0 10191187
15:00+28ююв684017 0.0 10182580
18:00+27ююв574895 0.0 10171997
21:00+22вюв4768100 0.0 1017114
27 июля, вт
вт2700:00+21вюв615685 0.0 1017388
03:00+20юв5156427 0.0 1016381
06:00+19юв51268100 0.0 1015344
09:00+22ююв61171100 0.0 1015548
12:00+22юв51073100 0.0 1015635
15:00+26ююв6861100 0.4 10131505
18:00+24ююз4780100 3.4 1013504
21:00+22юз2388100 3.9 101239
28 июля, ср
ср2800:00+20з1191100 0.0 101211
03:00+19сз1194100 0.4 101111
06:00+19с2396100 0.0 101081
09:00+18с359495 0.3 1009134
12:00+23сз1370100 0.0 1010576
15:00+25з4560100 0.1 10091037
18:00+24зсз467095 0.9 1010680
21:00+20зсз498378 1.4 1010299